Location: Artiguedieu
(43.5000°N, 0.5454°E)
Time: 09:55:12
(UTC+00:00)

Vanguard 1 Rocket - Pass Details

Date: 28 July 2021
Orbit: 650 x 4226 km, 34.3° (Epoch: 24 September)

Event Time Altitude Azimuth Distance (km) Brightness Sun altitude
Rises 09:05:09 0° 213° (SSW) 8,148 12.1 45.2°
Reaches altitude 10° 09:12:28 10° 204° (SSW) 6,702 11.9 46.5°
Maximum altitude 09:27:45 28° 155° (SSE) 3,998 11.7 49.0°
Drops below altitude 10° 09:37:20 10° 102° (ESE) 4,170 11.6 50.6°
Sets 09:40:32 0° 90° (E) 4,743 11.6 51.1°
